Regional Weather Roundup
Issued by NWS

Home | Current Version | Previous Version | Text Only | Print | Product List | Glossary Off
Versions: 1 2 3 4 5 6 7 8 9 10 11 12 13 14 15 16 17 18 19 20 21 22 23 24 25 26 27 28 29 30 31 32 33 34 35 36 37 38 39 40 41 42 43 44 45 46 47 48 49 50

000
ASUS45 KBOU 300507
RWRCO

WEATHER ROUNDUP FOR COLORADO
NATIONAL WEATHER SERVICE DENVER/BOULDER CO
1100 PM MDT MON SEP 29 2014

NOTE: "FAIR" INDICATES FEW OR NO CLOUDS BELOW 12000 FEET WITH NO
SIGNIFICANT WEATHER AND/OR OBSTRUCTIONS TO VISIBILITY.

COZ001>005-013-030-031-300600-
...NORTHWEST COLORADO...

CITY           SKY/WX    TMP DP  RH WIND       PRES   REMARKS
CRAIG          CLOUDY    45  39  79 SW15      30.04R
HAYDEN         CLOUDY    45  37  76 W7        30.04R
MEEKER         LGT RAIN  44  40  85 NE3       30.07R
MOUNT WERNER   NOT AVBL
STEAMBOAT SPGS CLOUDY    42  39  90 E7        30.04R
WALDEN         CLOUDY    37  34  87 S12       30.02S
$$

COZ006>008-011-300600-
...WEST CENTRAL VALLEYS...

CITY           SKY/WX    TMP DP  RH WIND       PRES   REMARKS
GRAND JUNCTION PTCLDY    46  43  89 E8        30.06R
MONTROSE       MOCLDY    44  42  93 CALM      30.12R
EAGLE          CLOUDY    45  43  93 E3        30.12R
RIFLE          CLOUDY    47  44  90 SE5       30.08R
DELTA          MIX PCPN  47  45  90 NE6       30.10R
NUCLA          MOCLDY    46  43  87 E8        30.14R
$$

COZ017>023-064>068-300600-
...SOUTHWEST COLORADO...

CITY           SKY/WX    TMP DP  RH WIND       PRES   REMARKS
DURANGO        CLOUDY    47  38  71 NW3       30.12R
CORTEZ         PTCLDY    47  42  83 NE6       30.10S
PAGOSA SPRINGS CLOUDY    40  40  99 CALM      30.15F
TELLURIDE      NOT AVBL
WOLF CREEK PAS CLOUDY    27  27 100 SW23G31   30.24S FOG     WCI  12
$$

COZ009-010-012-014-032>034-037-058>063-300600-
...CENTRAL COLORADO...

CITY           SKY/WX    TMP DP  RH WIND       PRES   REMARKS
ASPEN          CLOUDY    40  37  89 SW3       30.12R
BUENA VISTA    CLOUDY    46  29  52 CALM      30.05R
COPPER MTN     FLURRIES  32  28  86 SW18G29   30.18R WCI  20
BERTHOUD PASS  CLOUDY    23  21  93 MISG      30.11S
COTTONWOOD PAS MOCLDY    41  28  60 NW17G26   30.09S
GUNNISON       MOCLDY    39  34  81 N3        30.15R
KREMMLING      DRIZZLE   37  34  87 W7        30.09R
LEADVILLE      CLOUDY    34  28  79 NW9G20    30.13R WCI  27
SALIDA         MOCLDY    48  33  57 SW23G29   30.11F
SUNLIGHT       CLOUDY    32  32 100 CALM      30.20R FOG
WILKERSON PASS NOT AVBL
$$

COZ069>075-300600-
...SAN LUIS VALLEY/SANGRE DE CRISTO MOUNTAINS...

CITY           SKY/WX    TMP DP  RH WIND       PRES   REMARKS
ALAMOSA        MOCLDY    46  31  55 SW7       30.10R
LA VETA PASS   CLOUDY    34  32  93 S14G25    30.17S WCI  24
SAGUACHE       MOCLDY    41  34  75 W6        30.11R
$$

COZ035-036-038>040-300600-
...NORTHERN COLORADO FRONT RANGE...

CITY           SKY/WX    TMP DP  RH WIND       PRES   REMARKS
DENVER INTL AP LGT RAIN  47  44  90 N9        29.92S
DMNS CITY PARK   N/A     48  46  93 E6        29.92R
AURORA         NOT AVBL
FRONT RANGE AP RAIN      48  46  93 N9        29.93S
ERIE MUNI ARPT CLOUDY    49  46  90 E6        29.90S
BOULDER MUN AP CLOUDY    48  46  93 CALM      29.90R
CENTENNIAL     CLOUDY    47  45  93 E3        29.94S
BROOMFIELD     NOT AVBL
FORT COLLINS   CLOUDY    52  43  71 N8        29.88F
LONGMONT       DRIZZLE   52  47  84 S3        29.91R
$$

COZ041-046-047-076>085-087-088-300600-
...PIKES PEAK/PALMER DIVIDE AND SOUTHERN FOOTHILLS...

CITY           SKY/WX    TMP DP  RH WIND       PRES   REMARKS
COLO. SPRINGS  PTCLDY    48  40  73 NE10G16   29.93R
A. F. ACADEMY  MOCLDY    46  39  78 N10       29.95R
ELLICOTT       NOT AVBL
FALCON         PTCLDY    43  38  80 N10       29.97S
FORT CARSON    PTCLDY    50  33  53 W9        29.91R
LIMON          CLOUDY    48  45  89 NW21G40   29.93R
MONUMENT HILL  LGT RAIN  41  37  87 NW9G21    29.96F
TRINIDAD       CLEAR     50  38  63 SW9       29.96F
$$

COZ042>045-048>051-090-091-300600-
...NORTHEAST COLORADO...

CITY           SKY/WX    TMP DP  RH WIND       PRES   REMARKS
GREELEY ARPT   CLOUDY    50  43  76 NW10      29.88S
AKRON          TSTM      49  48  97 W30G44    29.81R VSB 3/4
BURLINGTON     CLEAR     55  50  83 S16       29.82F
WRAY           CLOUDY   N/A N/A N/A S8        29.75F
STERLING       CLOUDY    55  54  94 NW22G30   29.73R
HOLYOKE        CLOUDY    59  55  88 SE16G23   29.72S
FORT MORGAN    TSTM      49  46  90 NW15G28   29.83R
$$

COZ086-089-092>099-300600-
...SOUTHEAST COLORADO...

CITY           SKY/WX    TMP DP  RH WIND       PRES   REMARKS
PUEBLO         PTCLDY    54  41  61 CALM      29.89R
LA JUNTA       CLEAR     57  44  62 MISG      29.88S
LAMAR          CLEAR     57  54  89 SW13      29.85S
SPRINGFIELD      N/A     58  57  97 S12       29.92F
$$



USA.gov is the U.S. government's official web portal to all federal, state and local government web resources and services.